ACA324 CYYC-CYUL

Flight info

Callsign ACA324
Flight time N/A
Altitude 35000
Route LOMLO Q961 DAPOP DCT MUSKK DCT VESRU/N0459F370 DCT OVORA Q919 BEMOG LFLER7
Aircraft A320/M-SDE3FGHIRWY/LB1

Departure

Time N/A
Airport Calgary International Airport (CYYC)

Arrival

Time 2026-05-05 19:54
Airport Montreal / Pierre Elliott Trudeau International Airport (CYUL)
Time Latitude Longitude Altitude Speed Heading
2026-05-05 19:26 46.42159 -76.48557 34659 ft 523 kts 122°
2026-05-05 19:27 46.39330 -76.38877 34664 ft 522 kts 122°
2026-05-05 19:27 46.36494 -76.29212 34663 ft 521 kts 122°
2026-05-05 19:28 46.33669 -76.19581 34312 ft 519 kts 121°
2026-05-05 19:28 46.32252 -76.14769 34072 ft 520 kts 122°
2026-05-05 19:28 46.30830 -76.09963 33829 ft 520 kts 122°
2026-05-05 19:29 46.29402 -76.05148 33583 ft 522 kts 122°
2026-05-05 19:29 46.27986 -76.00389 33308 ft 522 kts 122°
2026-05-05 19:29 46.26550 -75.95571 33035 ft 523 kts 122°
2026-05-05 19:29 46.25112 -75.90748 32763 ft 523 kts 122°
2026-05-05 19:30 46.23675 -75.85924 32447 ft 522 kts 122°
2026-05-05 19:30 46.22242 -75.81118 32173 ft 521 kts 122°
2026-05-05 19:30 46.20806 -75.76319 31910 ft 518 kts 122°
2026-05-05 19:30 46.19399 -75.71598 31638 ft 505 kts 122°
2026-05-05 19:31 46.18029 -75.67001 31361 ft 493 kts 122°
2026-05-05 19:31 46.16679 -75.62490 31115 ft 493 kts 122°
2026-05-05 19:31 46.15457 -75.57745 30866 ft 514 kts 114°
2026-05-05 19:31 46.14637 -75.52669 30566 ft 525 kts 104°
2026-05-05 19:32 46.14142 -75.47449 30314 ft 525 kts 103°
2026-05-05 19:32 46.13664 -75.42239 30069 ft 524 kts 103°
2026-05-05 19:32 46.13184 -75.37045 29768 ft 522 kts 103°
2026-05-05 19:32 46.12698 -75.31842 28630 ft 527 kts 103°
2026-05-05 19:33 46.12214 -75.26666 27916 ft 512 kts 104°
2026-05-05 19:33 46.11738 -75.21601 26595 ft 508 kts 104°
2026-05-05 19:33 46.11265 -75.16593 25492 ft 500 kts 104°
2026-05-05 19:33 46.10799 -75.11688 24440 ft 490 kts 104°
2026-05-05 19:34 46.10338 -75.06876 23543 ft 481 kts 105°
2026-05-05 19:34 46.09874 -75.02123 22825 ft 478 kts 105°
2026-05-05 19:34 46.09406 -74.97396 22129 ft 475 kts 105°
2026-05-05 19:35 46.08481 -74.88059 20830 ft 467 kts 105°
2026-05-05 19:35 46.08180 -74.85008 20497 ft 463 kts 105°
2026-05-05 19:35 46.07731 -74.80444 19832 ft 461 kts 105°
2026-05-05 19:35 46.07280 -74.75898 19419 ft 453 kts 105°
2026-05-05 19:36 46.06823 -74.71402 18665 ft 455 kts 105°
2026-05-05 19:36 46.06364 -74.66950 18306 ft 443 kts 105°
2026-05-05 19:36 46.05921 -74.62591 17664 ft 438 kts 105°
2026-05-05 19:36 46.05485 -74.58254 17381 ft 438 kts 105°
2026-05-05 19:37 46.04888 -74.54008 16890 ft 426 kts 116°
2026-05-05 19:37 46.03723 -74.50183 16391 ft 409 kts 129°
2026-05-05 19:37 46.02085 -74.46953 15908 ft 393 kts 142°
2026-05-05 19:37 46.00113 -74.44343 15425 ft 380 kts 150°
2026-05-05 19:38 45.98067 -74.41958 14954 ft 378 kts 151°
2026-05-05 19:38 45.96030 -74.39585 14429 ft 376 kts 150°
2026-05-05 19:38 45.94005 -74.37227 13952 ft 374 kts 150°
2026-05-05 19:38 45.91984 -74.34879 13367 ft 374 kts 150°
2026-05-05 19:39 45.89968 -74.32529 12744 ft 373 kts 150°
2026-05-05 19:39 45.88005 -74.30226 12507 ft 352 kts 150°
2026-05-05 19:39 45.86184 -74.28069 12366 ft 327 kts 150°
2026-05-05 19:39 45.84474 -74.26049 11995 ft 312 kts 151°
2026-05-05 19:40 45.82804 -74.24106 11376 ft 307 kts 152°
2026-05-05 19:40 45.81167 -74.22223 10701 ft 305 kts 152°
2026-05-05 19:40 45.79516 -74.20331 10081 ft 301 kts 151°
2026-05-05 19:40 45.77889 -74.18458 9752 ft 300 kts 152°
2026-05-05 19:41 45.76271 -74.16554 9434 ft 303 kts 147°
2026-05-05 19:41 45.74872 -74.14246 9097 ft 312 kts 133°
2026-05-05 19:41 45.73775 -74.11536 8758 ft 315 kts 127°
2026-05-05 19:41 45.72730 -74.08788 8420 ft 313 kts 127°
2026-05-05 19:42 45.71690 -74.06066 8106 ft 311 kts 127°
2026-05-05 19:42 45.70652 -74.03355 7772 ft 310 kts 127°
2026-05-05 19:42 45.69619 -74.00660 7454 ft 308 kts 127°
2026-05-05 19:42 45.68590 -73.97978 7132 ft 307 kts 126°
2026-05-05 19:43 45.67565 -73.95310 6810 ft 306 kts 126°
2026-05-05 19:43 45.66544 -73.92655 6474 ft 304 kts 126°
2026-05-05 19:43 45.65525 -73.90012 6149 ft 303 kts 126°
2026-05-05 19:43 45.64511 -73.87387 5817 ft 301 kts 126°
2026-05-05 19:44 45.63502 -73.84771 5488 ft 300 kts 126°
2026-05-05 19:44 45.62495 -73.82167 5169 ft 298 kts 125°
2026-05-05 19:44 45.61499 -73.79573 4877 ft 298 kts 122°
2026-05-05 19:44 45.60937 -73.76708 4552 ft 305 kts 95°
2026-05-05 19:45 45.61268 -73.73754 4351 ft 297 kts 67°
2026-05-05 19:45 45.62347 -73.71355 4230 ft 279 kts 41°
2026-05-05 19:45 45.63728 -73.69516 4108 ft 266 kts 38°
2026-05-05 19:45 45.65066 -73.67758 3979 ft 259 kts 38°
2026-05-05 19:46 45.66385 -73.66020 3877 ft 258 kts 38°
2026-05-05 19:46 45.67701 -73.64290 3777 ft 257 kts 39°
2026-05-05 19:46 45.69018 -73.62561 3669 ft 257 kts 38°
2026-05-05 19:46 45.70212 -73.60657 3529 ft 259 kts 60°
2026-05-05 19:47 45.70740 -73.58224 3408 ft 256 kts 86°
2026-05-05 19:47 45.70624 -73.55743 3283 ft 246 kts 112°
2026-05-05 19:47 45.69866 -73.53642 3170 ft 233 kts 138°
2026-05-05 19:47 45.68660 -73.52234 3070 ft 218 kts 162°
2026-05-05 19:48 45.67262 -73.51620 2983 ft 206 kts 183°
2026-05-05 19:48 45.65878 -73.51750 2988 ft 195 kts 201°
2026-05-05 19:48 45.64655 -73.52495 2990 ft 189 kts 216°
2026-05-05 19:48 45.63600 -73.53599 2993 ft 189 kts 223°
2026-05-05 19:49 45.62610 -73.54826 2991 ft 188 kts 225°
2026-05-05 19:49 45.61639 -73.56086 2996 ft 188 kts 225°
2026-05-05 19:49 45.60681 -73.57347 2986 ft 187 kts 225°
2026-05-05 19:49 45.59740 -73.58585 2971 ft 180 kts 225°
2026-05-05 19:50 45.58834 -73.59778 2827 ft 174 kts 225°
2026-05-05 19:50 45.57956 -73.60935 2645 ft 170 kts 225°
2026-05-05 19:50 45.57109 -73.62050 2444 ft 161 kts 223°
2026-05-05 19:50 45.56309 -73.63103 2230 ft 157 kts 224°
2026-05-05 19:51 45.55542 -73.64112 2019 ft 141 kts 223°
2026-05-05 19:51 45.54853 -73.65020 1849 ft 131 kts 223°
2026-05-05 19:51 45.54197 -73.65883 1680 ft 126 kts 223°
2026-05-05 19:51 45.53549 -73.66735 1504 ft 127 kts 224°
2026-05-05 19:52 45.52906 -73.67579 1344 ft 125 kts 224°
2026-05-05 19:52 45.52256 -73.68434 1175 ft 129 kts 223°
2026-05-05 19:52 45.51600 -73.69294 1008 ft 127 kts 224°
2026-05-05 19:52 45.50954 -73.70141 830 ft 126 kts 223°
2026-05-05 19:53 45.50306 -73.70990 698 ft 129 kts 222°
2026-05-05 19:53 45.49640 -73.71862 562 ft 130 kts 223°
2026-05-05 19:53 45.48986 -73.72726 370 ft 128 kts 223°
2026-05-05 19:53 45.48330 -73.73597 167 ft 128 kts 222°
2026-05-05 19:54 45.47709 -73.74411 112 ft 108 kts 222°
2026-05-05 19:54 45.47273 -73.74979 113 ft 60 kts 222°
2026-05-05 19:54 45.47020 -73.75309 110 ft 43 kts 222°
2026-05-05 19:54 45.46834 -73.75527 108 ft 22 kts 210°
2026-05-05 19:55 45.46696 -73.75603 108 ft 21 kts 195°
2026-05-05 19:55 45.46553 -73.75649 105 ft 21 kts 193°
2026-05-05 19:55 45.46408 -73.75695 104 ft 22 kts 192°
2026-05-05 19:55 45.46260 -73.75729 104 ft 21 kts 179°
2026-05-05 19:56 45.46110 -73.75721 102 ft 20 kts 178°
2026-05-05 19:56 45.46061 -73.75607 104 ft 16 kts 87°
2026-05-05 19:56 45.46066 -73.75457 104 ft 15 kts 87°
2026-05-05 19:56 45.46043 -73.75328 104 ft 13 kts 118°
2026-05-05 19:57 45.46007 -73.75222 105 ft 11 kts 105°
2026-05-05 19:57 45.46009 -73.75116 105 ft 12 kts 82°
2026-05-05 19:57 45.45988 -73.74976 104 ft 15 kts 121°
2026-05-05 19:57 45.45982 -73.74838 105 ft 14 kts 88°
2026-05-05 19:58 45.45965 -73.74717 104 ft 9 kts 119°
2026-05-05 19:58 45.45922 -73.74726 105 ft 7 kts 200°
2026-05-05 19:58 45.45888 -73.74742 105 ft 0 kts 197°